When you browse on this site, cookies collect data to enhance your experience and personalize the content and advertising you see.
Visit our Privacy Policy to learn more. By continuing to use the site, you agree to this use of cookies and data.
  • In Hungary
  • List of Countries
  • For 7 days
  • Water Temperature
  • Weather Map
  • News
  • Weather Widgets
  • user-avatar
    Login

    Hourly Weather Bugojno

    Today, 27 May, Wednesday

    Time Temperature Precipitation Wind Pressure Humidity
    00:00 +8°C° 0.1 mm 3 mps 717 mmHg 97%
    01:00 +8°C° 0 mm 2 mps 717 mmHg 97%
    02:00 +8°C° 0.1 mm 2 mps 718 mmHg 97%
    03:00 +8°C° 0.1 mm 3 mps 718 mmHg 97%
    04:00 +8°C° 0.1 mm 3 mps 718 mmHg 97%
    05:00 +8°C° 0.1 mm 3 mps 718 mmHg 95%
    06:00 +8°C° 0.1 mm 3 mps 718 mmHg 94%
    07:00 +9°C° 0 mm 3 mps 718 mmHg 93%
    08:00 +9°C° 0.1 mm 3 mps 718 mmHg 92%
    09:00 +10°C° 0.1 mm 3 mps 718 mmHg 90%
    10:00 +10°C° 0.1 mm 4 mps 718 mmHg 89%
    11:00 +10°C° 0.2 mm 3 mps 718 mmHg 89%
    12:00 +11°C° 0.2 mm 3 mps 718 mmHg 89%
    13:00 +11°C° 0.2 mm 3 mps 718 mmHg 88%
    14:00 +11°C° 0.2 mm 3 mps 718 mmHg 87%
    15:00 +12°C° 0.2 mm 3 mps 717 mmHg 85%
    16:00 +13°C° 0.2 mm 3 mps 717 mmHg 83%
    17:00 +12°C° 0.3 mm 3 mps 717 mmHg 87%
    18:00 +12°C° 0.3 mm 2 mps 717 mmHg 91%
    19:00 +10°C° 0.3 mm 2 mps 717 mmHg 95%
    20:00 +10°C° 0 mm 2 mps 717 mmHg 96%
    21:00 +9°C° 0 mm 2 mps 717 mmHg 97%
    22:00 +8°C° 0 mm 2 mps 717 mmHg 97%
    23:00 +8°C° 0 mm 2 mps 717 mmHg 97%

    Tomorrow, 28 May, Thursday

    Time Temperature Precipitation Wind Pressure Humidity
    00:00 +9°C° 0 mm 1 mps 717 mmHg 97%
    01:00 +9°C° 0 mm 1 mps 717 mmHg 97%
    02:00 +9°C° 0 mm 1 mps 717 mmHg 97%
    03:00 +9°C° 0 mm 1 mps 716 mmHg 97%
    04:00 +10°C° 0 mm 1 mps 716 mmHg 97%
    05:00 +10°C° 0 mm 2 mps 716 mmHg 94%
    06:00 +10°C° 0 mm 2 mps 716 mmHg 92%
    07:00 +12°C° 0 mm 2 mps 716 mmHg 89%
    08:00 +13°C° 0.1 mm 3 mps 716 mmHg 80%
    09:00 +14°C° 0.1 mm 3 mps 716 mmHg 72%
    10:00 +16°C° 0.1 mm 3 mps 716 mmHg 63%
    11:00 +17°C° 0.1 mm 4 mps 716 mmHg 60%
    12:00 +18°C° 0.1 mm 4 mps 715 mmHg 56%
    13:00 +18°C° 0.1 mm 4 mps 715 mmHg 53%
    14:00 +18°C° 0.2 mm 4 mps 714 mmHg 56%
    15:00 +17°C° 0.2 mm 4 mps 714 mmHg 59%
    16:00 +17°C° 0.2 mm 4 mps 714 mmHg 62%
    17:00 +14°C° 0 mm 3 mps 714 mmHg 69%
    18:00 +13°C° 0 mm 3 mps 713 mmHg 76%
    19:00 +13°C° 0 mm 2 mps 713 mmHg 83%
    20:00 +12°C° 0.2 mm 2 mps 714 mmHg 87%
    21:00 +12°C° 0.2 mm 2 mps 714 mmHg 91%
    22:00 +10°C° 0.2 mm 2 mps 714 mmHg 95%
    23:00 +10°C° 0.2 mm 2 mps 714 mmHg 96%

    Day after tomorrow, 29 May, Friday

    Time Temperature Precipitation Wind Pressure Humidity
    00:00 +9°C° 0.2 mm 2 mps 714 mmHg 96%
    01:00 +9°C° 0.2 mm 2 mps 713 mmHg 97%
    02:00 +8°C° 0 mm 2 mps 713 mmHg 97%
    03:00 +8°C° 0 mm 2 mps 713 mmHg 97%
    04:00 +7°C° 0 mm 2 mps 713 mmHg 97%
    05:00 +8°C° 0 mm 2 mps 713 mmHg 95%
    06:00 +9°C° 0 mm 2 mps 713 mmHg 93%
    07:00 +9°C° 0 mm 2 mps 713 mmHg 91%
    08:00 +10°C° 0.1 mm 2 mps 713 mmHg 86%
    09:00 +12°C° 0.1 mm 2 mps 713 mmHg 81%
    10:00 +13°C° 0.1 mm 2 mps 714 mmHg 77%
    11:00 +14°C° 0.1 mm 2 mps 713 mmHg 74%
    12:00 +15°C° 0.1 mm 2 mps 713 mmHg 72%
    13:00 +15°C° 0.1 mm 2 mps 713 mmHg 70%
    14:00 +15°C° 0.1 mm 2 mps 712 mmHg 70%
    15:00 +15°C° 0.1 mm 2 mps 712 mmHg 71%
    16:00 +15°C° 0.1 mm 2 mps 711 mmHg 72%
    17:00 +14°C° 0.1 mm 2 mps 711 mmHg 79%
    18:00 +13°C° 0.1 mm 2 mps 711 mmHg 85%
    19:00 +12°C° 0.1 mm 1 mps 711 mmHg 92%
    20:00 +11°C° 0 mm 1 mps 711 mmHg 93%
    21:00 +10°C° 0 mm 1 mps 711 mmHg 95%
    22:00 +9°C° 0 mm 1 mps 711 mmHg 96%
    23:00 +9°C° 0 mm 1 mps 711 mmHg 96%

    30 May, Saturday

    Time Temperature Precipitation Wind Pressure Humidity
    00:00 +9°C° 0 mm 1 mps 711 mmHg 96%
    01:00 +8°C° 0 mm 1 mps 711 mmHg 96%
    02:00 +8°C° 0 mm 1 mps 711 mmHg 96%
    03:00 +8°C° 0 mm 1 mps 710 mmHg 97%
    04:00 +8°C° 0 mm 1 mps 710 mmHg 97%
    05:00 +9°C° 0 mm 1 mps 710 mmHg 95%
    06:00 +11°C° 0 mm 1 mps 711 mmHg 93%
    07:00 +12°C° 0 mm 1 mps 711 mmHg 91%
    08:00 +13°C° 0.3 mm 1 mps 711 mmHg 87%
    09:00 +14°C° 0.3 mm 1 mps 711 mmHg 82%
    10:00 +15°C° 0.3 mm 2 mps 712 mmHg 78%
    11:00 +15°C° 0.9 mm 2 mps 711 mmHg 79%
    12:00 +15°C° 0.9 mm 2 mps 711 mmHg 81%
    13:00 +16°C° 0.9 mm 2 mps 711 mmHg 82%
    14:00 +15°C° 1 mm 2 mps 711 mmHg 83%
    15:00 +15°C° 1 mm 2 mps 711 mmHg 84%
    16:00 +15°C° 1 mm 2 mps 711 mmHg 84%
    17:00 +14°C° 0.5 mm 2 mps 711 mmHg 88%
    18:00 +13°C° 0.5 mm 1 mps 711 mmHg 91%
    19:00 +12°C° 0.5 mm 1 mps 710 mmHg 95%
    20:00 +11°C° 0 mm 1 mps 711 mmHg 95%
    21:00 +10°C° 0 mm 1 mps 711 mmHg 96%
    22:00 +9°C° 0 mm 1 mps 711 mmHg 96%
    23:00 +10°C° 0 mm 1 mps 711 mmHg 97%

    31 May, Sunday

    Time Temperature Precipitation Wind Pressure Humidity
    00:00 +10°C° 0 mm 1 mps 711 mmHg 97%
    01:00 +10°C° 0 mm 1 mps 711 mmHg 97%
    02:00 +9°C° 0 mm 1 mps 711 mmHg 96%
    03:00 +9°C° 0 mm 1 mps 711 mmHg 96%
    04:00 +8°C° 0 mm 1 mps 711 mmHg 96%
    05:00 +9°C° 0 mm 1 mps 711 mmHg 92%
    06:00 +11°C° 0 mm 1 mps 711 mmHg 88%
    07:00 +12°C° 0 mm 1 mps 711 mmHg 85%
    08:00 +14°C° 0 mm 1 mps 711 mmHg 74%
    09:00 +16°C° 0 mm 1 mps 712 mmHg 64%
    10:00 +18°C° 0 mm 1 mps 712 mmHg 54%
    11:00 +19°C° 0.1 mm 1 mps 711 mmHg 54%
    12:00 +19°C° 0.1 mm 1 mps 711 mmHg 54%
    13:00 +18°C° 0.1 mm 2 mps 711 mmHg 54%
    14:00 +18°C° 0.4 mm 2 mps 710 mmHg 58%
    15:00 +17°C° 0.4 mm 2 mps 710 mmHg 62%
    16:00 +17°C° 0.4 mm 2 mps 710 mmHg 66%
    17:00 +15°C° 0.4 mm 1 mps 710 mmHg 74%
    18:00 +14°C° 0.4 mm 1 mps 709 mmHg 81%
    19:00 +12°C° 0.4 mm 1 mps 709 mmHg 89%
    20:00 +12°C° 0 mm 1 mps 709 mmHg 90%
    21:00 +11°C° 0 mm 1 mps 710 mmHg 91%
    22:00 +9°C° 0 mm 0 mps 710 mmHg 92%
    23:00 +8°C° 0 mm 0 mps 710 mmHg 92%

    1 June, Monday

    Time Temperature Precipitation Wind Pressure Humidity
    00:00 +8°C° 0 mm 0 mps 710 mmHg 92%
    01:00 +8°C° 0 mm 0 mps 709 mmHg 92%
    02:00 +8°C° 0 mm 0 mps 709 mmHg 91%
    03:00 +8°C° 0 mm 0 mps 709 mmHg 91%
    04:00 +8°C° 0 mm 0 mps 709 mmHg 91%
    05:00 +10°C° 0 mm 0 mps 709 mmHg 87%
    06:00 +11°C° 0 mm 0 mps 709 mmHg 83%
    07:00 +14°C° 0 mm 1 mps 710 mmHg 78%
    08:00 +15°C° 0.1 mm 1 mps 710 mmHg 71%
    09:00 +18°C° 0.1 mm 1 mps 710 mmHg 64%
    10:00 +19°C° 0.1 mm 1 mps 711 mmHg 56%
    11:00 +19°C° 0.4 mm 1 mps 710 mmHg 59%
    12:00 +19°C° 0.4 mm 1 mps 710 mmHg 62%
    13:00 +18°C° 0.4 mm 2 mps 710 mmHg 65%
    14:00 +18°C° 1.1 mm 2 mps 710 mmHg 71%
    15:00 +17°C° 1.1 mm 2 mps 710 mmHg 77%
    16:00 +17°C° 1.1 mm 2 mps 709 mmHg 83%
    17:00 +16°C° 0.6 mm 1 mps 709 mmHg 87%
    18:00 +15°C° 0.6 mm 1 mps 709 mmHg 90%
    19:00 +14°C° 0.6 mm 1 mps 709 mmHg 94%
    20:00 +13°C° 0 mm 1 mps 710 mmHg 95%
    21:00 +12°C° 0 mm 1 mps 710 mmHg 96%
    22:00 +11°C° 0 mm 1 mps 710 mmHg 97%
    23:00 +10°C° 0 mm 1 mps 710 mmHg 97%
    Show more